Regional Weather Roundup
Issued by NWS

Home | Current Version | Previous Version | Graphics & Text | Print | Product List | Glossary On
Versions: 1 2 3 4 5 6 7 8 9 10 11 12 13 14 15 16 17 18 19 20 21 22 23 24 25 26 27
000
ASUS45 KBOI 251110
RWRID

IDAHO REGIONAL WEATHER ROUNDUP
NATIONAL WEATHER SERVICE BOISE ID
500 AM MDT TUE APR 25 2017

NOTE: "FAIR" INDICATES FEW OR NO CLOUDS BELOW 12000 FEET
WITH NO SIGNIFICANT WEATHER AND/OR OBSTRUCTIONS TO VISIBILITY

IDZ012-014-251200-
SOUTHWEST IDAHO


CITY           SKY/WX    TMP DP  RH WIND       PRES   REMARKS
BOISE          CLOUDY    42  38  85 NW10      29.85R
CALDWELL       CLOUDY    43  37  79 W13       29.87R
MOUNTAIN HOME  MOCLDY    41  41 100 NW13      29.83R
$$

IDZ016-017-251200-
SOUTHCENTRAL IDAHO


CITY           SKY/WX    TMP DP  RH WIND       PRES   REMARKS
BURLEY         CLOUDY    40  34  79 W17G28    29.74S WCI  31
JEROME         CLOUDY    39  37  92 W24G32    29.77S WCI  28
TWIN FALLS     CLOUDY    39  37  92 W17G29    29.79R WCI  30
$$

IDZ019>023-251200-
SOUTHEAST IDAHO


CITY           SKY/WX    TMP DP  RH WIND       PRES   REMARKS
IDAHO FALLS    CLOUDY    38  36  92 SW18      29.69S WCI  28
POCATELLO      CLOUDY    39  36  89 W21       29.73F WCI  29
REXBURG        LGT RAIN  37  36  96 SW13      29.68R WCI  29
$$

IDZ006-010-011-018-031-032-251200-
CENTRAL IDAHO MOUNTAINS


CITY           SKY/WX    TMP DP  RH WIND       PRES   REMARKS
MCCALL         CLOUDY    33  31  92 W6        29.78R FOG     WCI  28
HAILEY         PTCLDY    32  28  86 NW7       29.72R WCI  26
STANLEY          N/A     32  31  96 CALM      29.75S
SALMON         CLOUDY    37  34  87 SW3       29.75R
CHALLIS        MOCLDY    35  29  78 CALM      29.74R
$$

IDZ002-004-006-007-026-251200-
NORTHERN IDAHO


CITY           SKY/WX    TMP DP  RH WIND       PRES   REMARKS
LEWISTON       CLOUDY    47  45  93 S6        29.85R
LOWELL           N/A     46  43  89 VRB3      29.86R
COEUR D`ALENE  CLOUDY    43  40  89 CALM      29.82R
MULLAN PASS    MIX PCPN  30  30 100 NW5       29.77R VSB 1/2 WCI  25
$$




USA.gov is the U.S. government's official web portal to all federal, state and local government web resources and services.